STARLINK-2406, 47821

Orbit data source: Space-Track

STARLINK-2406, 47821 is a payload satellite owned by SpaceX/Seattle (US) in LEO that was launched on Thu, 11 Mar 2021 UTC via an FALCON 9 launch vehicle from the Air Force Eastern Test Range (AFETR). Payload-class satellites include a variety of spacecraft equipped with specific instruments for various scientific and technological missions. These include communications satellites like Starlink; space stations such as the ISS; scientific satellites like the Hubble; Earth observation satellites from companies like Planet Labs, Umbra, and HawkEye 360; GPS; miniature CubeSats for education and research; and military/defense satellites.

Loading next visibility...
Identifier
47821, 2021-018AL
Orbit
LEO
Country
Flag of USUS
Related business
Manufacturer
SpaceX/Seattle
Mission
Operational Commercial Communications
Bus & Motor
STARLINK, Unknown motor
Mass
260 kg wet, ~248 kg dry
Launch date (UTC)
2021-03-11 (5 years ago)
Launch vehicle
FALCON 9
Launch site
Air Force Eastern Test Range (AFETR)
Object type
Payload
Rocket body
Debris
Shape & HBR
Box + 1 Pan, 10.1 m
Radar Cross Section
13.562 m², Large (>1 m²)

Expand to show TLE details & history
Last TLE update: 23 hours ago

TLE from 23 hours ago
0 STARLINK-2406
1 47821U 21018AL  25291.92484177  .00003157  00000-0  23073-3 0  9999
2 47821  53.0535 168.0373 0001450  96.4839 263.6315 15.06399598255229
Epoch: 2025-10-18T22:11Z
TLE epoch observation values (Epoch: 2025-10-18T22:11:46.328Z)
Latitude
-0.00005°
Longitude
167.44535°
Altitude
548.203 km
Speed
7.589 km/s
True Right ascension
11h 12m 08s
True Declination
0° 00' 00"
Sunlit
Object was in daylight at epoch
Visualization orbit readout
Latitude
Unknown
Longitude
Unknown
Altitude
Unknown
Speed
Unknown
Apparent Right ascension
Unknown
Apparent Declination
Unknown
Sunlit
N/A
Visualization observer readout
Local Sidereal Time
16:03:43
Azimuth
Unknown
Elevation
Unknown
Doppler factor
Unknown
Orbital elements
Apogee altitude
548.488 km
Perigee altitude
546.479 km
Semi-major axis
6,925.621 km
Eccentricity
0.00015
Inclination
53.0535°
RAAN
168.0373°
Arg. of periapsis
96.4839°
True anomaly
263.61499°
Mean anomaly
263.6315°
Eccentric anomaly
263.62324°
Mean motion
3.76578 °/min
Orbital period
95.6 mins
BSTAR
0.00023073
Loading maneuver chart data...
Computing Atmospheric mass density...

Documentation

Showing up to 5 results
|